User: anonymous   Login
Location: Chanteloup
(48.8560°N, 2.7390°E)
Time: 03:27:07
(UTC+00:00)
Language:

Cosmos 1825 Rocket - Orbit

View from above orbital plane
View from above orbital plane
View from above satellite
View from above satellite

Ground track
Ground track

The orbit data is extracted from the following two-line orbital elements,

1 17567U 87024B   22020.60193839  .00000192  00000-0  20199-4 0  9999
2 17567  82.5275  67.9098 0018495 204.3170 155.7175 14.83851106885346
Epoch (UTC): 20 January 2022 14:26:47
Eccentricity: 0.0018495
inclination: 82.5275°
perigee height: 604 km
apogee height: 630 km
right ascension of ascending node: 67.9098°
argument of perigee: 204.3170°
revolutions per day: 14.83851106
mean anomaly at epoch: 155.7175°
orbit number at epoch: 88534

The dashed part of the orbit path shows where the satellite is in the earth's shadow,  

DLR